DW5444 Weather Reports


time (UTC)temp
F
wind
direction
speed
knots
gust
knots
rain 1hr
in
rain 24hr
in
rain mn
in
humidity
%
barometer
mb
20260510183110 64 263 4.3 8.7 0.00 0.00 0.00 51 1014.2
20260510181617 63 270 2.6 4.3 0.00 0.00 0.00 52 1013.9
20260510180156 63 254 5.2 7.8 0.00 0.00 0.00 54 1014.1
20260510174609 62 253 2.6 7.0 0.00 0.00 0.00 56 1013.8
20260510173056 62 261 2.6 5.2 0.00 0.00 0.00 54 1013.8
20260510171620 62 257 2.6 4.3 0.00 0.00 0.00 57 1013.8
20260510170053 62 261 2.6 6.1 0.00 0.00 0.00 57 1013.8
20260510164559 61 254 4.3 6.1 0.00 0.00 0.00 63 1014.1
20260510163057 62 288 2.6 5.2 0.00 0.00 0.00 64 1013.9
20260510161549 62 274 0.9 1.7 0.00 0.00 0.00 56 1013.8
20260510160048 62 275 0.9 3.5 0.00 0.00 0.00 61 1014.2
20260510154547 61 246 0.9 3.5 0.00 0.00 0.00 59 1013.9
20260510153046 62 277 0.9 2.6 0.00 0.00 0.00 55 1014.1
20260510151545 64 146 0.9 1.7 0.00 0.00 0.00 53 1014.1
20260510150048 62 140 0.9 2.6 0.00 0.00 0.00 56 1014.0
20260510144540 59 267 1.7 3.5 0.00 0.00 0.00 59 1014.5
20260510143035 61 227 0.0 0.9 0.00 0.00 0.00 63 1014.6
20260510141533 59 159 0.0 0.9 0.00 0.00 0.00 60 1014.4
20260510140026 56 146 0.9 1.7 0.00 0.00 0.00 69 1014.4
20260510134522 53 141 1.7 2.6 0.00 0.00 0.00 75 1014.1
20260510133024 48 79 0.9 1.7 0.00 0.00 0.00 81 1014.0
20260510131519 46 87 1.7 3.5 0.00 0.00 0.00 81 1014.0
20260510130019 43 81 0.9 2.6 0.00 0.00 0.00 87 1013.7
20260510124517 41 83 0.9 2.6 0.00 0.00 0.00 85 1013.8
20260510123015 42 80 0.9 2.6 0.00 0.00 0.00 85 1013.6
20260510121513 43 59 0.0 0.9 0.00 0.00 0.00 83 1013.5
20260510120010 43 72 2.6 3.5 0.00 0.00 0.00 81 1013.6
20260510114510 43 76 0.0 1.7 0.00 0.00 0.00 83 1013.8
20260510113006 44 69 0.0 3.5 0.00 0.00 0.00 79 1013.7
20260510111505 49 88 0.9 2.6 0.00 0.00 0.00 69 1013.8
20260510110005 48 112 0.9 2.6 0.00 0.00 0.00 73 1013.7
20260510104501 45 78 1.7 2.6 0.00 0.00 0.00 79 1013.8
20260510103100 46 79 2.6 3.5 0.00 0.00 0.00 77 1013.9
20260510101608 46 80 2.6 3.5 0.00 0.00 0.00 77 1013.9
20260510100107 45 85 3.5 4.3 0.00 0.00 0.00 79 1014.0
20260510094554 48 73 1.7 4.3 0.00 0.00 0.00 76 1014.0
20260510093050 51 73 2.6 4.3 0.00 0.00 0.00 67 1014.2
20260510091549 52 73 1.7 2.6 0.00 0.00 0.00 67 1014.4
20260510090048 52 357 0.0 1.7 0.00 0.00 0.00 67 1014.4
20260510084606 52 42 0.9 1.7 0.00 0.00 0.00 66 1014.4
20260510083046 52 50 0.0 1.7 0.00 0.00 0.00 67 1014.5
20260510081545 51 64 1.7 3.5 0.00 0.00 0.00 67 1014.6
20260510080059 50 64 0.9 1.7 0.00 0.00 0.00 70 1014.7
20260510074547 50 72 1.7 3.5 0.00 0.00 0.00 73 1014.8
20260510073048 50 85 2.6 2.6 0.00 0.00 0.00 72 1014.7
20260510071538 50 83 2.6 3.5 0.00 0.00 0.00 71 1014.8
20260510070043 52 79 2.6 3.5 0.00 0.00 0.00 67 1014.9
20260510064539 52 88 2.6 3.5 0.00 0.00 0.00 68 1014.8
20260510063036 52 104 0.9 3.5 0.00 0.00 0.00 67 1014.7
20260510061633 52 81 1.7 3.5 0.00 0.00 0.00 66 1014.9
20260510060039 54 79 2.6 3.5 0.00 0.00 0.00 60 1014.9
20260510054530 54 54 1.7 2.6 0.00 0.00 0.00 61 1014.9
20260510053028 56 50 0.9 3.5 0.00 0.00 0.00 57 1015.1
20260510051528 58 54 2.6 6.1 0.00 0.00 0.00 52 1015.0
20260510050035 59 38 2.6 6.1 0.00 0.00 0.00 51 1015.2
20260510044526 57 66 3.5 5.2 0.00 0.00 0.00 56 1015.3
20260510043025 60 73 5.2 7.0 0.00 0.00 0.00 49 1015.3
20260510041526 59 59 4.3 6.1 0.00 0.00 0.00 51 1015.5
20260510040023 59 67 4.3 6.1 0.00 0.00 0.00 51 1015.4
20260510034523 59 61 3.5 6.1 0.00 0.00 0.00 54 1015.3
20260510033021 60 62 4.3 6.1 0.00 0.00 0.00 57 1015.3
20260510031524 58 66 3.5 4.3 0.00 0.00 0.00 66 1015.3
20260510030020 59 52 2.6 3.5 0.00 0.00 0.00 65 1015.4
20260510024521 62 72 2.6 3.5 0.00 0.00 0.00 60 1015.4
20260510023019 63 69 2.6 3.5 0.00 0.00 0.00 57 1015.4
20260510021541 65 57 1.7 5.2 0.00 0.00 0.00 54 1015.4
20260510020017 66 54 3.5 6.1 0.00 0.00 0.00 52 1015.5
20260510014530 66 57 2.6 5.2 0.00 0.00 0.00 50 1015.7
20260510013012 68 61 4.3 7.0 0.00 0.00 0.00 46 1016.0
20260510011516 70 33 2.6 7.8 0.00 0.00 0.00 44 1016.1
20260510010020 70 57 2.6 7.8 0.00 0.00 0.00 43 1016.1
20260510004509 71 312 1.7 7.0 0.00 0.00 0.00 40 1016.3
20260510003007 70 331 2.6 6.1 0.00 0.00 0.00 41 1016.6
20260510001506 71 54 4.3 7.0 0.00 0.00 0.00 39 1016.7
20260510000004 71 45 3.5 7.0 0.00 0.00 0.00 39 1016.8
20260509234503 70 337 2.6 6.1 0.00 0.00 0.00 39 1016.9
20260509233001 70 315 3.5 7.0 0.00 0.00 0.00 38 1016.8
20260509231604 70 52 2.6 7.0 0.00 0.00 0.00 37 1017.1
20260509230059 70 303 3.5 9.6 0.00 0.00 0.00 37 1017.3
20260509224556 71 38 2.6 6.1 0.00 0.00 0.00 36 1017.5
20260509223054 70 286 1.7 7.0 0.00 0.00 0.00 36 1017.7
20260509221550 69 305 0.9 7.0 0.00 0.00 0.00 37 1017.8
20260509220051 70 315 1.7 7.0 0.00 0.00 0.00 35 1017.9
20260509214549 69 335 1.7 7.8 0.00 0.00 0.00 36 1018.0
20260509213103 70 59 3.5 6.1 0.00 0.00 0.00 37 1018.1
20260509211546 69 42 1.7 6.1 0.00 0.00 0.00 38 1018.1
20260509210049 69 312 4.3 8.7 0.00 0.00 0.00 39 1018.3
20260509204540 69 263 2.6 7.0 0.00 0.00 0.00 40 1018.4
20260509203037 68 74 1.7 5.2 0.00 0.00 0.00 40 1018.6
20260509201538 68 296 3.5 8.7 0.00 0.00 0.00 38 1018.6
20260509200034 67 303 1.7 6.1 0.00 0.00 0.00 42 1018.8
20260509194544 67 303 1.7 6.1 0.00 0.00 0.00 43 1018.9
20260509193027 66 278 4.3 7.0 0.00 0.00 0.00 45 1019.1
20260509191526 67 277 0.9 4.3 0.00 0.00 0.00 50 1019.3
20260509190026 66 22 0.0 6.1 0.00 0.00 0.00 44 1019.3
20260509184521 64 299 1.7 5.2 0.00 0.00 0.00 49 1019.5